Location: Assche-ter-Heiden
(50.9174°N, 4.1574°E)
Time: 16:42:37
(UTC+00:00)

Cosmos 1606 Rocket - Pass Details

Date: 20 January 2020
Orbit: 602 x 633 km, 82.5° (Epoch: 20 February)

Event Time Altitude Azimuth Distance (km) Brightness Sun altitude
Rises 05:15:39 0° 177° (S) 2,911 7.1 -21.6°
Reaches altitude 10° 05:17:54 10° 174° (S) 2,005 6.3 -21.2°
Maximum altitude 05:22:16 58° 96° (E) 734 4.2 -20.5°
Drops below altitude 10° 05:26:38 10° 17° (NNE) 2,005 6.3 -19.8°
Sets 05:28:53 0° 14° (NNE) 2,911 7.1 -19.5°
